Location: Skalnate Pleso
(49.1889°N, 20.2450°E)
Time: 03:23:54
(UTC+01:00)

CZ-2C R/B - Pass Details

Date: 19 November 2019
Orbit: 667 x 785 km, 98.1° (Epoch: 14 December)

Event Time Altitude Azimuth Distance (km) Brightness Sun altitude
Rises 04:06:18 0° 14° (NNE) 3,174 5.9 -27.2°
Reaches altitude 10° 04:08:38 10° 16° (NNE) 2,229 5.1 -26.8°
Maximum altitude 04:13:31 78° 104° (ESE) 728 2.3 -26.0°
Enters shadow 04:14:52 47° 180° (S) 928 2.8 -25.8°
